"Pseudo-MPEC" for P11JSYx

Created 2023 Sep 19 16:22:27 UT using Find_Orb

Click here for an explanation of pseudo-MPECs

 
 Astrometry: 
     P11JSYx* C2023 09 18vw;i8EN1K^Bg6(D8\s'aBIB`e86b-AstrometryYYKvqJJK6u/X=F51
     P11JSYx  C2023 09 18y4EC'qbC91eSP#Cl0redacted;#%5yv`#!Pxeb;dv:.WvY??r*^%F51
     P11JSYx  C2023 09 18ZHK,$\V[^,Z#HOgxDOU@.t9Z$Q_8mb?t3%jlaFMy,aTkjR5s./(\F51
     P11JSYx  C2023 09 18;--!dOQ+?wG?%F%f#3WG?F@'/de?YsufN_clickm#jxvhEomFt3IF51
     P11JSYx  C2023 09 18-EpEj.UmrtfQmaqAdxj=t2iY=me$85+]Z9lMegmp4Tg0T,.xI)1?F51
     P11JSYx  C2023 09 18Ljhere\j7!H)7SgKforF3R1TE[CSIS-explanation/a_XDJQKo3F51
     P11JSYx KC2023 09 19.25172823 39 33.890-05 36 44.50   ~9J6b 22.06GVNEOCPV06
     P11JSYx KC2023 09 19.25966823 39 33.740-05 36 37.00   ~9J6b       VNEOCPV06
     P11JSYx KC2023 09 19.26363923 39 33.670-05 36 33.60   ~9J6b       VNEOCPV06

Station data:
(F51) Pan-STARRS 1, Haleakala  (N20.707234 W156.255910)  US/Hawaii.
   Observers J. Bulger, T. Lowe, A. Schultz, M. Willman. Measurers K.
   Chambers, S. Chastel, T. de Boer, L. Denneau, J. Fairlamb, H. Flewelling,
   M. Huber, C.-C. Lin, E. Magnier, Y. Ramanjooloo, R. Wainscoat, R. Weryk.
   1.8-m Ritchey-Chrétien + CCD.
(V06) Catalina Sky Survey-Kuiper  (N32.416844 W110.732550)  US/Arizona.
   Observers T. A. Pruyne, B. M. Africano, E. J. Christensen, G. A. Farneth,
   D. C. Fuls, A. R. Gibbs, A. D. Grauer, H. Gröller, J. A. Johnson, R. A.
   Kowalski, S. M. Larson, G. J. Leonard, D. Rankin, R. L. Seaman, F. C.
   Shelly, K. W. Wierzchoś. 1.55-m reflector + CCD.

Orbital elements:  P11JSYx
   Perihelion 2023 Sep 4.39643 +/- 8.44 TT =  9:30:51 (JD 2460191.89643)
Epoch 2023 Sep 19.0 TT = JDT 2460206.5   Earth MOID: 0.3102   Ma: 0.0458
M   4.71660304 +/- 2.6              (J2000 ecliptic)             AutoNEOCP
n   0.32297611 +/- 0.00387          Peri.  338.98220 +/- 6
a   2.10388718 +/- 0.0168           Node     4.76376 +/- 0.15
e   0.3742405 +/- 0.00692           Incl.    4.47006 +/- 0.07
P   3.05                   H 23.75  G  0.15   U  9.1
q 1.31652719 +/- 0.00758    Q 2.89124717 +/- 0.0364
From 9 observations 2023 Sept. 18-19 (21.6 hr); mean residual 0".07
Residuals in arcseconds: 
230918 F51  .05+  .15-    230918 F51  .02-  .03+    230919 V06  .06-  .03-    
230918 F51  .03-  .12+    230918 F51  .01+  .07-    230919 V06  .02-  .15+    
230918 F51  .01-  .02+    230918 F51  .01-  .04+    230919 V06  .08+  .12-    

Ephemerides (geocentric):
Date (UTC) HH   RA             Dec           delta  r     elong  mag " sig PA
---- --------  ------------   ------------  ------ ------ -----  --- --------
2023 09 19 16  23 39 29.384   -05 30 03.56  .31998 1.3239 175.7 22.2 .310 179
2023 09 19 17  23 39 28.981   -05 29 24.98  .32004 1.3240 175.7 22.2 .333 179
2023 09 19 18  23 39 28.579   -05 28 46.40  .32009 1.3240 175.7 22.2 .356 179
2023 09 19 19  23 39 28.177   -05 28 07.83  .32015 1.3241 175.7 22.2 .381 179
2023 09 19 20  23 39 27.776   -05 27 29.26  .32021 1.3241 175.6 22.2 .407 179
2023 09 19 21  23 39 27.376   -05 26 50.68  .32027 1.3241 175.6 22.2 .434 178
2023 09 19 22  23 39 26.976   -05 26 12.11  .32033 1.3242 175.6 22.2 .462 178
2023 09 19 23  23 39 26.577   -05 25 33.54  .32039 1.3242 175.6 22.2 .490 178
2023 09 20 00  23 39 26.178   -05 24 54.97  .32045 1.3243 175.6 22.2 .520 178
2023 09 20 01  23 39 25.780   -05 24 16.40  .32051 1.3243 175.5 22.2 .551 178
2023 09 20 02  23 39 25.383   -05 23 37.83  .32057 1.3243 175.5 22.2 .583 177
2023 09 20 03  23 39 24.986   -05 22 59.26  .32063 1.3244 175.5 22.2 .616 177
2023 09 20 04  23 39 24.590   -05 22 20.69  .32069 1.3244 175.5 22.2 .649 177
2023 09 20 05  23 39 24.195   -05 21 42.13  .32075 1.3245 175.5 22.2 .684 177
2023 09 20 06  23 39 23.801   -05 21 03.56  .32081 1.3245 175.4 22.2 .720 177
2023 09 20 07  23 39 23.407   -05 20 25.00  .32088 1.3246 175.4 22.2 .757 177
2023 09 20 08  23 39 23.014   -05 19 46.43  .32094 1.3246 175.4 22.2 .794 177
2023 09 20 09  23 39 22.622   -05 19 07.87  .32100 1.3246 175.4 22.2 .833 177
2023 09 20 10  23 39 22.230   -05 18 29.31  .32106 1.3247 175.3 22.2 .873 177
2023 09 20 11  23 39 21.839   -05 17 50.75  .32112 1.3247 175.3 22.2 .913 177
2023 09 20 12  23 39 21.449   -05 17 12.19  .32119 1.3248 175.3 22.2 .955 176
2023 09 20 13  23 39 21.060   -05 16 33.63  .32125 1.3248 175.3 22.2 1.00 176
2023 09 20 14  23 39 20.672   -05 15 55.08  .32131 1.3248 175.2 22.2 1.04 176
2023 09 20 15  23 39 20.284   -05 15 16.52  .32137 1.3249 175.2 22.2 1.09 176
2023 09 20 16  23 39 19.897   -05 14 37.97  .32144 1.3249 175.2 22.2 1.13 176
2023 09 20 17  23 39 19.511   -05 13 59.41  .32150 1.3250 175.2 22.2 1.18 176
2023 09 20 18  23 39 19.126   -05 13 20.86  .32157 1.3250 175.1 22.2 1.23 176
2023 09 20 19  23 39 18.741   -05 12 42.31  .32163 1.3251 175.1 22.3 1.27 176
2023 09 20 20  23 39 18.358   -05 12 03.76  .32169 1.3251 175.1 22.3 1.32 176
2023 09 20 21  23 39 17.975   -05 11 25.22  .32176 1.3251 175.1 22.3 1.37 176
2023 09 20 22  23 39 17.593   -05 10 46.67  .32182 1.3252 175.0 22.3 1.43 176
2023 09 20 23  23 39 17.212   -05 10 08.13  .32189 1.3252 175.0 22.3 1.48 176
2023 09 21 00  23 39 16.832   -05 09 29.58  .32195 1.3253 175.0 22.3 1.53 176
2023 09 21 01  23 39 16.453   -05 08 51.04  .32202 1.3253 175.0 22.3 1.59 176
2023 09 21 02  23 39 16.074   -05 08 12.50  .32209 1.3254 174.9 22.3 1.64 176
2023 09 21 03  23 39 15.697   -05 07 33.96  .32215 1.3254 174.9 22.3 1.70 176
2023 09 21 04  23 39 15.320   -05 06 55.43  .32222 1.3255 174.9 22.3 1.75 176
2023 09 21 05  23 39 14.945   -05 06 16.89  .32228 1.3255 174.9 22.3 1.81 176
2023 09 21 06  23 39 14.570   -05 05 38.36  .32235 1.3255 174.8 22.3 1.87 176
2023 09 21 07  23 39 14.196   -05 04 59.83  .32242 1.3256 174.8 22.3 1.93 176
2023 09 21 08  23 39 13.823   -05 04 21.30  .32249 1.3256 174.8 22.3 1.99 176
2023 09 21 09  23 39 13.451   -05 03 42.77  .32255 1.3257 174.7 22.3 2.05 175
2023 09 21 10  23 39 13.080   -05 03 04.25  .32262 1.3257 174.7 22.3 2.12 175
2023 09 21 11  23 39 12.710   -05 02 25.72  .32269 1.3258 174.7 22.3 2.18 175
2023 09 21 12  23 39 12.341   -05 01 47.20  .32276 1.3258 174.7 22.3 2.25 175
2023 09 21 13  23 39 11.973   -05 01 08.68  .32282 1.3259 174.6 22.3 2.31 175
2023 09 21 14  23 39 11.606   -05 00 30.16  .32289 1.3259 174.6 22.3 2.38 175
2023 09 21 15  23 39 11.240   -04 59 51.65  .32296 1.3259 174.6 22.3 2.45 175